FW7886 Weather Reports


time (UTC)temp
F
wind
direction
speed
knots
gust
knots
rain 1hr
in
rain 24hr
in
rain mn
in
humidity
%
barometer
mb
20260502223432 75 136 1.7 6.1 0.00 0.58 0.28 43 1015.5
20260502222926 75 156 1.7 5.2 0.00 0.59 0.28 43 1015.5
20260502222420 75 135 1.7 5.2 0.00 0.60 0.28 42 1015.6
20260502221914 76 172 1.7 7.0 0.00 0.60 0.28 43 1015.5
20260502221637 76 151 1.7 7.0 0.00 0.61 0.28 44 1015.5
20260502220902 76 127 1.7 4.3 0.00 0.62 0.28 42 1015.4
20260502220356 76 139 1.7 4.3 0.00 0.62 0.28 43 1015.5
20260502215850 76 142 1.7 7.0 0.00 0.62 0.28 43 1015.4
20260502215344 76 130 1.7 7.0 0.00 0.62 0.28 43 1015.4
20260502214839 76 137 1.7 6.1 0.00 0.62 0.28 43 1015.4
20260502214332 76 148 1.7 6.1 0.00 0.62 0.28 43 1015.3
20260502213826 76 151 0.9 6.1 0.00 0.63 0.28 46 1015.4
20260502213320 76 133 0.9 5.2 0.00 0.64 0.28 47 1015.4
20260502212814 76 147 1.7 5.2 0.00 0.66 0.28 46 1015.3
20260502212308 76 140 1.7 4.3 0.00 0.69 0.28 44 1015.4
20260502211815 76 174 1.7 5.2 0.00 0.78 0.28 48 1015.5
20260502211256 76 149 1.7 7.0 0.00 0.89 0.28 46 1015.4
20260502210750 76 154 1.7 7.8 0.00 0.94 0.28 46 1015.5
20260502210244 76 146 1.7 7.8 0.00 0.97 0.28 46 1015.5
20260502205738 76 144 1.7 7.0 0.00 1.00 0.28 44 1015.6
20260502205232 76 113 1.7 4.3 0.00 1.02 0.28 46 1015.6
20260502204726 76 160 1.7 8.7 0.00 1.04 0.28 48 1015.5
20260502204706 76 89 1.7 8.7 0.00 1.06 0.28 47 1015.6
20260502203716 76 144 1.7 4.3 0.00 1.07 0.28 48 1015.6
20260502203216 76 138 1.7 5.2 0.00 1.09 0.28 46 1015.8
20260502203202 76 147 1.7 5.2 0.00 1.12 0.28 48 1015.7
20260502202215 76 134 1.7 6.1 0.00 1.17 0.28 48 1015.8
20260502201715 75 132 2.6 10.4 0.00 1.22 0.28 47 1015.9
20260502201212 75 152 2.6 10.4 0.00 1.26 0.28 45 1015.9
20260502200929 76 130 1.7 7.0 0.00 1.31 0.28 48 1016.1
20260502200210 75 142 1.7 7.0 0.00 1.35 0.28 52 1016.1
20260502195710 75 158 1.7 7.0 0.00 1.38 0.28 49 1016.0
20260502195209 75 135 1.7 6.1 0.00 1.41 0.28 49 1016.1
20260502194710 75 43 1.7 6.1 0.00 1.46 0.28 48 1016.1
20260502194211 75 151 1.7 6.1 0.00 1.54 0.28 48 1016.2
20260502193705 75 133 1.7 7.8 0.00 1.55 0.28 51 1016.3
20260502193207 75 134 1.7 7.8 0.00 1.58 0.28 51 1016.2
20260502192933 75 142 1.7 6.1 0.00 1.61 0.28 53 1016.2
20260502192207 75 130 1.7 7.0 0.00 1.68 0.28 54 1016.3
20260502191705 75 154 1.7 7.0 0.00 1.77 0.28 55 1016.2
20260502191208 75 129 1.7 7.8 0.00 1.83 0.28 54 1016.1
20260502190703 74 135 1.7 7.8 0.00 1.87 0.28 56 1016.2
20260502190203 74 176 1.7 7.0 0.00 1.92 0.28 54 1016.0
20260502185702 74 106 2.6 7.0 0.00 1.95 0.28 52 1016.1
20260502185203 74 117 1.7 5.2 0.00 2.01 0.28 52 1016.0
20260502184700 75 135 1.7 5.2 0.00 2.08 0.28 56 1016.1
20260502184158 75 134 1.7 5.2 0.00 2.25 0.28 59 1016.2
20260502183659 75 134 1.7 5.2 0.00 2.36 0.28 57 1016.1
20260502183158 75 171 1.7 4.3 0.00 2.47 0.28 61 1016.2
20260502182915 75 103 1.7 4.3 0.00 2.54 0.28 61 1016.0
20260502182643 74 112 1.7 4.3 0.00 2.59 0.28 61 1016.1
20260502181655 74 45 1.7 5.2 0.00 2.65 0.28 63 1016.2
20260502181155 74 132 1.7 5.2 0.00 2.70 0.28 63 1016.3
20260502180657 74 149 1.7 5.2 0.00 2.73 0.28 62 1016.3
20260502180152 73 134 1.7 4.3 0.00 2.78 0.28 65 1016.3
20260502180140 73 118 1.7 7.0 0.00 2.81 0.28 65 1016.3
20260502170415 73 139 1.7 6.1 0.00 2.84 0.28 65 1017.2
20260502164151 73 156 0.9 4.3 0.00 2.84 0.28 71 1017.2
20260502163653 72 144 1.7 5.2 0.00 2.84 0.28 68 1017.1
20260502163147 72 140 1.7 7.0 0.00 2.84 0.28 69 1017.2
20260502162905 71 141 1.7 7.0 0.00 2.84 0.28 69 1017.1
20260502162139 71 139 1.7 6.1 0.00 2.84 0.28 70 1017.3
20260502161637 71 137 1.7 6.1 0.00 2.84 0.28 71 1017.3
20260502161136 71 149 0.9 4.3 0.00 2.84 0.28 70 1017.3
20260502160635 71 151 0.9 4.3 0.00 2.84 0.28 68 1017.4
20260502160135 71 142 0.9 3.5 0.00 2.84 0.28 73 1017.4
20260502152135 69 139 0.9 4.3 0.00 2.84 0.28 75 1017.1
20260502151632 68 130 1.7 6.1 0.00 2.84 0.28 76 1017.1
20260502151129 68 98 1.7 6.1 0.00 2.84 0.28 76 1017.0
20260502150629 67 152 1.7 7.0 0.00 2.84 0.28 78 1016.9
20260502150131 67 149 1.7 5.2 0.00 2.84 0.28 79 1016.9
20260502130413 58 145 0.9 2.6 0.00 2.84 0.28 94 1015.7
20260502123338 55 147 0.0 2.6 0.00 2.84 0.28 97 1015.2
20260502122325 55 140 0.0 1.7 0.00 2.84 0.28 98 1015.3
20260502122046 55 145 0.0 0.9 0.00 2.84 0.28 98 1015.0
20260502121313 54 146 0.0 0.9 0.00 2.84 0.28 98 1014.8
20260502121029 54 145 0.0 0.9 0.00 2.84 0.28 98 1014.8
20260502120522 54 145 0.0 1.7 0.00 2.84 0.28 98 1014.5
20260502115755 54 145 0.0 1.7 0.00 2.84 0.28 98 1014.6
20260502115249 54 146 0.0 0.9 0.00 2.84 0.28 98 1014.6
20260502114742 54 145 0.0 1.7 0.00 2.84 0.28 98 1014.6
20260502114237 54 156 0.0 1.7 0.00 2.84 0.28 98 1014.3
20260502113731 54 142 0.0 0.9 0.00 2.84 0.28 98 1014.4
20260502113225 54 142 0.0 1.7 0.00 2.84 0.28 98 1014.3
20260502112719 54 142 0.0 1.7 0.00 2.84 0.28 98 1014.2
20260502112213 54 152 0.0 2.6 0.00 2.84 0.28 98 1014.2
20260502111707 54 150 0.0 2.6 0.00 2.84 0.28 98 1014.1
20260502111201 54 145 0.0 2.6 0.00 2.84 0.28 98 1013.9
20260502110655 54 134 0.0 2.6 0.00 2.84 0.28 98 1014.0
20260502110149 54 153 0.0 2.6 0.00 2.84 0.28 98 1013.6
20260502105644 54 156 0.0 3.5 0.00 2.84 0.28 98 1013.7
20260502105137 54 153 0.9 3.5 0.00 2.84 0.28 98 1013.7
20260502104631 54 147 0.9 2.6 0.00 2.84 0.28 98 1013.7
20260502104126 54 135 0.9 2.6 0.00 2.84 0.28 98 1013.7
20260502103619 54 142 0.0 2.6 0.00 2.84 0.28 98 1013.7
20260502103114 54 146 0.0 2.6 0.00 2.84 0.28 98 1013.8
20260502102607 54 134 0.9 2.6 0.00 2.84 0.28 98 1013.6
20260502102324 54 147 0.0 1.7 0.00 2.84 0.28 98 1013.6
20260502101555 54 151 0.0 1.7 0.00 2.84 0.28 98 1013.5
20260502101050 53 154 0.0 2.6 0.00 2.84 0.28 98 1013.6
20260502100544 53 149 0.9 3.5 0.00 2.84 0.28 98 1013.5
20260502091530 53 161 1.7 7.0 0.02 2.85 0.28 99 1013.0
20260502091032 53 137 0.9 5.2 0.02 2.85 0.28 99 1013.0
20260502090532 53 205 1.7 6.1 0.02 2.85 0.28 99 1012.8
20260502071525 54 163 1.7 5.2 0.09 2.81 0.24 99 1013.1
20260502071022 54 132 0.9 5.2 0.09 2.79 0.23 99 1013.0
20260502070516 54 151 0.0 2.6 0.10 2.79 0.22 99 1013.3
20260502070228 54 149 0.9 2.6 0.10 2.78 0.21 99 1013.1
20260502065504 54 132 0.9 2.6 0.10 2.78 0.21 99 1012.9
20260502065222 54 144 0.0 1.7 0.09 2.77 0.20 99 1013.3
20260502064713 54 137 0.0 1.7 0.08 2.76 0.19 99 1013.4
20260502063946 54 131 0.0 1.7 0.08 2.75 0.18 99 1013.0
20260502063441 54 130 0.0 1.7 0.08 2.74 0.17 99 1013.2
20260502062935 54 134 0.9 3.5 0.11 2.74 0.17 99 1013.1
20260502062428 54 152 0.9 3.5 0.13 2.74 0.17 99 1012.6
20260502061923 54 143 0.0 4.3 0.14 2.73 0.16 99 1012.6
20260502061904 54 157 0.0 4.3 0.14 2.72 0.15 99 1012.8
20260502060911 54 133 0.0 2.6 0.13 2.70 0.13 99 1013.6
20260502060404 54 156 0.0 1.7 0.12 2.69 0.12 99 1013.7
20260502055859 54 148 0.0 2.6 0.11 2.68 0.11 99 1013.7
20260502055615 54 131 0.0 2.6 0.12 2.68 0.11 99 1013.5
20260502055112 54 134 0.9 5.2 0.14 2.68 0.11 99 1013.5
20260502054340 54 146 0.9 5.2 0.16 2.67 0.10 99 1013.4
20260502053835 54 149 0.9 4.3 0.17 2.67 0.10 99 1013.4
20260502053328 54 144 0.9 4.3 0.15 2.65 0.09 99 1013.3
20260502052822 54 130 0.9 7.0 0.13 2.63 0.06 99 1013.1
20260502052803 54 130 0.9 7.0 0.10 2.60 0.04 99 1013.6
20260502052029 54 135 0.9 3.5 0.09 2.59 0.02 99 1013.2
20260502051309 54 125 0.9 2.6 0.08 2.58 0.01 99 1013.4
20260502050810 54 144 0.9 3.5 0.07 2.57 0.00 99 1013.2
20260502050308 54 139 0.9 3.5 0.07 2.57 0.00 99 1013.4
20260502045808 54 156 0.9 4.3 0.08 2.57 2.57 99 1013.2
20260502045306 54 139 0.9 5.2 0.08 2.56 2.56 99 1013.0
20260502044805 54 132 0.9 5.2 0.05 2.53 2.54 99 1013.2
20260502044305 54 149 0.9 3.5 0.03 2.51 2.51 99 1013.2
20260502044240 54 130 0.9 4.3 0.02 2.50 2.50 99 1013.2
20260502043528 54 141 1.7 6.1 0.02 2.50 2.50 99 1012.7
20260502042804 55 140 0.9 6.1 0.02 2.50 2.50 99 1012.5
20260502042305 55 143 0.9 5.2 0.02 2.50 2.50 99 1012.4
20260502042021 55 175 0.9 5.2 0.02 2.50 2.50 99 1012.5
20260502041303 55 155 0.9 4.3 0.02 2.50 2.50 99 1012.5
20260502040804 55 158 0.9 3.5 0.02 2.50 2.50 99 1012.6
20260502040305 55 151 0.9 5.2 0.02 2.50 2.50 99 1012.7
20260502035802 55 182 0.9 5.2 0.01 2.49 2.49 99 1012.8
20260502035306 55 121 0.9 4.3 0.00 2.48 2.48 99 1012.8
20260502035025 55 142 0.9 5.2 0.00 2.48 2.48 99 1012.7
20260502034304 55 132 1.7 5.2 0.00 2.48 2.48 99 1012.5
20260502033803 55 130 1.7 5.2 0.00 2.48 2.48 99 1012.6
20260502033532 55 142 0.9 5.2 0.00 2.48 2.48 99 1012.5
20260502032804 55 157 0.9 4.3 0.00 2.48 2.48 99 1012.5
20260502032536 55 164 0.9 4.3 0.00 2.48 2.48 99 1012.7
20260502032028 55 125 0.9 5.2 0.00 2.48 2.48 99 1012.6
20260502031302 55 139 0.9 5.2 0.00 2.48 2.48 99 1012.4
20260502030802 55 167 0.9 3.5 0.00 2.48 2.48 99 1012.5
20260502030302 55 146 0.9 4.3 0.00 2.48 2.48 99 1012.5
20260502030024 55 134 0.9 4.3 0.00 2.48 2.48 99 1012.4
20260502025306 55 151 0.9 3.5 0.00 2.48 2.48 99 1012.5
20260502024803 55 143 0.9 3.5 0.00 2.48 2.48 99 1012.2
20260502024303 55 115 0.9 3.5 0.00 2.48 2.48 99 1012.5
20260502023802 56 163 0.9 2.6 0.00 2.48 2.48 99 1012.4
20260502023303 55 149 0.9 6.1 0.00 2.48 2.48 99 1012.4
20260502022803 56 146 0.9 6.1 0.00 2.48 2.48 99 1012.4
20260502022530 56 157 0.9 6.1 0.00 2.48 2.48 99 1012.3
20260502022028 56 115 0.9 5.2 0.00 2.48 2.48 99 1012.2
20260502021303 56 155 0.9 5.2 0.00 2.48 2.48 99 1012.2
20260502020800 56 142 0.9 4.3 0.00 2.48 2.48 99 1011.9
20260502020301 56 159 0.9 4.3 0.00 2.48 2.48 99 1011.8
20260502020238 56 137 0.9 3.5 0.00 2.48 2.48 99 1011.6
20260502015301 56 149 0.9 4.3 0.00 2.48 2.48 99 1011.4
20260502014756 56 125 0.9 4.3 0.00 2.48 2.48 99 1011.2
20260502014525 56 135 0.0 2.6 0.00 2.48 2.48 99 1011.2
20260502013758 56 137 0.9 6.1 0.01 2.48 2.48 99 1011.5
20260502013257 56 152 0.9 6.1 0.01 2.48 2.48 99 1011.3
20260502012756 56 140 0.9 4.3 0.03 2.48 2.48 99 1011.0
20260502012256 56 151 0.9 6.1 0.03 2.48 2.48 99 1011.2
20260502011756 56 149 0.9 6.1 0.03 2.48 2.48 99 1011.1
20260502011250 56 48 0.9 4.3 0.03 2.48 2.48 99 1010.2
20260502010744 56 160 0.9 5.2 0.04 2.48 2.48 99 1009.9
20260502010238 56 135 1.7 5.2 0.04 2.48 2.48 99 1010.0
20260502005732 56 248 1.7 7.0 0.04 2.48 2.48 99 1009.5
20260502005226 56 166 1.7 7.0 0.04 2.48 2.48 99 1009.1
20260502004947 56 195 0.9 5.2 0.06 2.48 2.48 99 1009.2
20260502004214 56 139 0.9 4.3 0.07 2.48 2.48 99 1009.7
20260502003708 56 266 0.9 4.3 0.10 2.47 2.47 99 1010.2
20260502003202 56 157 0.0 1.7 0.12 2.46 2.47 99 1010.7
20260502002656 56 153 0.9 3.5 0.14 2.45 2.45 99 1010.7
20260502002415 56 130 0.9 4.3 0.16 2.45 2.45 99 1010.7
20260502001905 56 130 0.9 4.3 0.16 2.45 2.45 99 1010.8
20260502001136 56 139 0.9 3.5 0.16 2.45 2.45 99 1010.6
20260502000630 56 135 0.0 3.5 0.15 2.44 2.44 99 1011.2
20260502000124 56 145 0.9 4.3 0.16 2.44 2.44 99 1011.3
20260501235618 55 146 0.9 4.3 0.16 2.44 2.44 99 1011.4
20260501235112 55 150 0.0 4.3 0.16 2.44 2.44 99 1011.8
20260501235054 55 145 0.9 4.3 0.14 2.42 2.42 99 1012.1
20260501234100 55 164 0.9 4.3 0.11 2.39 2.40 99 1011.9
20260501233554 55 149 0.9 6.1 0.09 2.36 2.37 99 1011.5
20260501233048 55 153 0.9 6.1 0.07 2.33 2.33 99 1011.2
20260501232542 56 144 0.9 4.3 0.04 2.30 2.31 99 1011.4
20260501232305 56 139 1.7 7.8 0.04 2.29 2.29 99 1010.9
20260501231530 56 149 1.7 7.8 0.05 2.30 2.29 99 1010.8
20260501231024 56 130 1.7 7.8 0.05 2.31 2.29 99 1011.1
20260501230619 57 152 0.9 3.5 0.05 2.30 2.28 99 1011.2
20260501230601 56 194 0.9 6.1 0.06 2.31 2.29 99 1011.4
20260501230449 56 135 0.9 4.3 0.05 2.30 2.28 99 1011.2
20260501230340 56 137 0.9 4.3 0.05 2.30 2.28 99 1010.6
20260501230226 57 136 0.9 3.5 0.05 2.30 2.28 99 1010.6
20260501224454 57 152 0.9 3.5 0.05 2.30 2.28 99 1011.2
20260501223948 57 137 0.9 7.0 0.06 2.30 2.28 99 1011.0